Meteo pe oră la Aba

Astăzi, 13 Iunie, Duminică

Timp Temperatura Precipitaţii Vânt Presiune Umiditate
00:00 +19°C° 0.5 mm 5 m/s 751 mmHg 83%
01:00 +19°C° 0.5 mm 6 m/s 751 mmHg 87%
02:00 +17°C° 0 mm 6 m/s 752 mmHg 87%
03:00 +17°C° 0 mm 7 m/s 752 mmHg 87%
04:00 +16°C° 0 mm 8 m/s 752 mmHg 86%
05:00 +16°C° 0 mm 8 m/s 753 mmHg 82%
06:00 +16°C° 0 mm 8 m/s 753 mmHg 78%
07:00 +17°C° 0 mm 8 m/s 754 mmHg 74%
08:00 +17°C° 0 mm 8 m/s 754 mmHg 67%
09:00 +18°C° 0 mm 8 m/s 755 mmHg 59%
10:00 +19°C° 0 mm 9 m/s 755 mmHg 51%
11:00 +21°C° 0 mm 9 m/s 755 mmHg 48%
12:00 +21°C° 0 mm 9 m/s 755 mmHg 44%
13:00 +22°C° 0 mm 9 m/s 755 mmHg 41%
14:00 +22°C° 0 mm 8 m/s 755 mmHg 43%
15:00 +22°C° 0 mm 8 m/s 755 mmHg 45%
16:00 +22°C° 0 mm 8 m/s 755 mmHg 47%
17:00 +20°C° 0 mm 7 m/s 755 mmHg 50%
18:00 +18°C° 0 mm 7 m/s 755 mmHg 53%
19:00 +17°C° 0 mm 6 m/s 756 mmHg 56%
20:00 +16°C° 0 mm 6 m/s 756 mmHg 58%
21:00 +14°C° 0 mm 5 m/s 756 mmHg 60%
22:00 +13°C° 0 mm 5 m/s 757 mmHg 62%
23:00 +13°C° 0 mm 5 m/s 757 mmHg 64%

Mâine, 14 Iunie, Luni

Timp Temperatura Precipitaţii Vânt Presiune Umiditate
00:00 +12°C° 0 mm 5 m/s 757 mmHg 66%
01:00 +10°C° 0 mm 5 m/s 757 mmHg 68%
02:00 +10°C° 0 mm 4 m/s 757 mmHg 72%
03:00 +10°C° 0 mm 4 m/s 757 mmHg 76%
04:00 +8°C° 0 mm 4 m/s 757 mmHg 79%
05:00 +11°C° 0 mm 4 m/s 757 mmHg 75%
06:00 +12°C° 0 mm 5 m/s 757 mmHg 72%
07:00 +14°C° 0 mm 5 m/s 757 mmHg 68%
08:00 +15°C° 0 mm 4 m/s 757 mmHg 62%
09:00 +18°C° 0 mm 4 m/s 757 mmHg 56%
10:00 +19°C° 0 mm 3 m/s 757 mmHg 50%
11:00 +20°C° 0 mm 3 m/s 756 mmHg 48%
12:00 +21°C° 0 mm 3 m/s 756 mmHg 45%
13:00 +22°C° 0 mm 3 m/s 756 mmHg 42%
14:00 +22°C° 0 mm 3 m/s 755 mmHg 44%
15:00 +22°C° 0 mm 3 m/s 755 mmHg 45%
16:00 +23°C° 0 mm 2 m/s 755 mmHg 47%
17:00 +20°C° 0 mm 2 m/s 755 mmHg 52%
18:00 +19°C° 0 mm 2 m/s 755 mmHg 58%
19:00 +18°C° 0 mm 2 m/s 755 mmHg 64%
20:00 +17°C° 0 mm 2 m/s 755 mmHg 64%
21:00 +17°C° 0 mm 2 m/s 755 mmHg 65%
22:00 +16°C° 0 mm 2 m/s 756 mmHg 66%
23:00 +15°C° 0 mm 1 m/s 756 mmHg 69%

Poimâine, 15 Iunie, Marţi

Timp Temperatura Precipitaţii Vânt Presiune Umiditate
00:00 +14°C° 0 mm 1 m/s 756 mmHg 73%
01:00 +13°C° 0 mm 1 m/s 756 mmHg 76%
02:00 +13°C° 0 mm 1 m/s 756 mmHg 78%
03:00 +12°C° 0 mm 1 m/s 756 mmHg 81%
04:00 +12°C° 0 mm 1 m/s 756 mmHg 83%
05:00 +14°C° 0 mm 1 m/s 756 mmHg 77%
06:00 +16°C° 0 mm 1 m/s 756 mmHg 71%
07:00 +18°C° 0 mm 1 m/s 756 mmHg 65%
08:00 +20°C° 0 mm 1 m/s 756 mmHg 60%
09:00 +22°C° 0 mm 1 m/s 756 mmHg 54%
10:00 +23°C° 0 mm 1 m/s 756 mmHg 49%
11:00 +24°C° 0 mm 1 m/s 756 mmHg 47%
12:00 +25°C° 0 mm 1 m/s 755 mmHg 45%
13:00 +26°C° 0 mm 1 m/s 755 mmHg 42%
14:00 +26°C° 0 mm 1 m/s 755 mmHg 43%
15:00 +26°C° 0 mm 1 m/s 755 mmHg 44%
16:00 +26°C° 0 mm 2 m/s 754 mmHg 44%
17:00 +24°C° 0 mm 2 m/s 754 mmHg 51%
18:00 +23°C° 0 mm 2 m/s 754 mmHg 57%
19:00 +20°C° 0 mm 2 m/s 754 mmHg 63%
20:00 +19°C° 0 mm 2 m/s 754 mmHg 63%
21:00 +18°C° 0 mm 2 m/s 754 mmHg 62%
22:00 +19°C° 0 mm 1 m/s 754 mmHg 62%
23:00 +18°C° 0 mm 1 m/s 754 mmHg 62%

16 Iunie, Miercuri

Timp Temperatura Precipitaţii Vânt Presiune Umiditate
00:00 +18°C° 0 mm 1 m/s 754 mmHg 63%
01:00 +18°C° 0 mm 1 m/s 754 mmHg 63%
02:00 +18°C° 0 mm 1 m/s 754 mmHg 64%
03:00 +16°C° 0 mm 1 m/s 754 mmHg 66%
04:00 +16°C° 0 mm 1 m/s 754 mmHg 67%
05:00 +18°C° 0 mm 1 m/s 754 mmHg 65%
06:00 +20°C° 0 mm 1 m/s 754 mmHg 64%
07:00 +21°C° 0 mm 1 m/s 754 mmHg 62%
08:00 +23°C° 0 mm 1 m/s 755 mmHg 58%
09:00 +24°C° 0 mm 1 m/s 755 mmHg 54%
10:00 +24°C° 0 mm 0 m/s 755 mmHg 50%
11:00 +25°C° 0 mm 0 m/s 755 mmHg 48%
12:00 +28°C° 0 mm 1 m/s 754 mmHg 45%
13:00 +29°C° 0 mm 1 m/s 754 mmHg 43%
14:00 +29°C° 0 mm 1 m/s 754 mmHg 42%
15:00 +29°C° 0 mm 1 m/s 754 mmHg 41%
16:00 +29°C° 0 mm 1 m/s 754 mmHg 40%
17:00 +27°C° 0 mm 1 m/s 754 mmHg 47%
18:00 +26°C° 0 mm 1 m/s 754 mmHg 53%
19:00 +24°C° 0 mm 1 m/s 754 mmHg 60%
20:00 +23°C° 0 mm 1 m/s 754 mmHg 61%
21:00 +22°C° 0 mm 1 m/s 754 mmHg 63%
22:00 +21°C° 0 mm 1 m/s 754 mmHg 65%
23:00 +20°C° 0 mm 1 m/s 754 mmHg 67%

17 Iunie, Joi

Timp Temperatura Precipitaţii Vânt Presiune Umiditate
00:00 +20°C° 0 mm 1 m/s 754 mmHg 68%
01:00 +17°C° 0 mm 0 m/s 754 mmHg 70%
02:00 +19°C° 0 mm 1 m/s 754 mmHg 73%
03:00 +18°C° 0 mm 1 m/s 755 mmHg 76%
04:00 +18°C° 0 mm 1 m/s 755 mmHg 79%
05:00 +20°C° 0 mm 1 m/s 755 mmHg 76%
06:00 +21°C° 0 mm 1 m/s 755 mmHg 73%
07:00 +23°C° 0 mm 1 m/s 755 mmHg 69%
08:00 +24°C° 0 mm 2 m/s 755 mmHg 65%
09:00 +26°C° 0 mm 2 m/s 755 mmHg 60%
10:00 +27°C° 0 mm 2 m/s 755 mmHg 55%
11:00 +28°C° 0.1 mm 2 m/s 755 mmHg 53%
12:00 +29°C° 0.1 mm 2 m/s 755 mmHg 50%
13:00 +30°C° 0.1 mm 2 m/s 754 mmHg 47%
14:00 +29°C° 0 mm 2 m/s 754 mmHg 49%
15:00 +29°C° 0 mm 2 m/s 754 mmHg 51%
16:00 +29°C° 0 mm 2 m/s 754 mmHg 53%
17:00 +28°C° 0 mm 2 m/s 754 mmHg 56%
18:00 +27°C° 0 mm 2 m/s 754 mmHg 58%
19:00 +26°C° 0 mm 2 m/s 754 mmHg 61%
20:00 +25°C° 0 mm 2 m/s 754 mmHg 62%
21:00 +24°C° 0 mm 2 m/s 754 mmHg 63%
22:00 +23°C° 0 mm 2 m/s 754 mmHg 64%
23:00 +23°C° 0 mm 2 m/s 754 mmHg 67%

18 Iunie, Vineri

Timp Temperatura Precipitaţii Vânt Presiune Umiditate
00:00 +22°C° 0 mm 1 m/s 754 mmHg 70%
01:00 +21°C° 0 mm 1 m/s 754 mmHg 74%
02:00 +20°C° 0 mm 1 m/s 754 mmHg 76%
03:00 +20°C° 0 mm 1 m/s 754 mmHg 79%
04:00 +19°C° 0 mm 1 m/s 754 mmHg 81%
05:00 +21°C° 0 mm 1 m/s 754 mmHg 77%
06:00 +22°C° 0 mm 1 m/s 754 mmHg 73%
07:00 +24°C° 0 mm 2 m/s 754 mmHg 69%
08:00 +25°C° 0 mm 2 m/s 754 mmHg 64%
09:00 +27°C° 0 mm 2 m/s 754 mmHg 59%
10:00 +28°C° 0 mm 2 m/s 754 mmHg 55%
11:00 +29°C° 0 mm 2 m/s 754 mmHg 51%
12:00 +30°C° 0 mm 1 m/s 754 mmHg 46%
13:00 +31°C° 0 mm 1 m/s 753 mmHg 42%
14:00 +31°C° 0 mm 1 m/s 753 mmHg 42%
15:00 +31°C° 0 mm 1 m/s 753 mmHg 41%
16:00 +31°C° 0 mm 1 m/s 753 mmHg 41%
17:00 +30°C° 0 mm 1 m/s 752 mmHg 47%
18:00 +28°C° 0 mm 1 m/s 752 mmHg 53%
19:00 +27°C° 0 mm 1 m/s 752 mmHg 59%
20:00 +26°C° 0 mm 1 m/s 752 mmHg 61%
21:00 +25°C° 0 mm 1 m/s 753 mmHg 63%
22:00 +21°C° 0 mm 0 m/s 753 mmHg 65%
23:00 +21°C° 0 mm 0 m/s 753 mmHg 67%
Arată mai mult

Formular de consimțământ

Meteoprog și furnizorii noștri de servicii pot stoca și accesa date personale, precum cookies, identificatori de dispozitiv sau alte tehnologii similare pe dispozitivul dumneavoastră și procesa astfel de date pentru a personaliza conținutul și reclamele, dar și pentru a oferi caracteristici de social media și pentru a analiza traficul.

  • Stocarea și/sau accesarea informațiilor pe dispozitivul dumneavoastră

    Cookies, identificatori de dispozitiv sau alte informații pot fi stocate sau accesate pe dispozitiv în scopurile indicate mai sus.

  • Reclame și conținut personalizat, evaluarea reclamelor și a conținutului, informații despre audiențe și dezvoltarea produselor

    Reclamele și conținutul pot fi personalizate pe baza unui profil. Pot fi adăugate date suplimentare pentru a personaliza mai bine reclamele și conținutul. Performanța reclamelor și conținutului poate fi măsurată. Pot fi obținute informații despre utilizatorii care au văzut reclamele și conținutul. Aceste date pot fi utilizate pentru a dezvolta sau îmbunătăți experiența utilizatorilor, sistemele și software-ul.

Dând clic pe ‘Sunt de acord’, permiteți utilizarea cookie-urilor menționate, a identificatorilor de dispozitiv, balizelor web sau altor tehnologii similare. Setările pot fi modificate din browser-ul dispozitivului dumneavoastră.

În anumite scopuri, interesele legitime pot prima asupra consimțământului. Puteți citi mai multe informații în acest sens în Politica privind Confidențialitatea Datelor și Cookie.